| time (UTC) | temp F | wind direction | speed knots | gust knots | rain 1hr in | rain 24hr in | rain mn in | humidity % | barometer mb |
| 20260507100009 | 50 | 38 | 0.0 | 0.0 | 0.00 | 0.21 | 0.02 | 89 | 1010.7 |
| 20260507094539 | 50 | 38 | 0.0 | 0.9 | 0.00 | 0.21 | 0.02 | 89 | 1010.8 |
| 20260507093036 | 50 | 36 | 0.0 | 2.6 | 0.00 | 0.21 | 0.02 | 90 | 1010.6 |
| 20260507091536 | 50 | 5 | 0.0 | 4.3 | 0.00 | 0.21 | 0.02 | 90 | 1010.8 |
| 20260507090027 | 50 | 22 | 0.0 | 2.6 | 0.00 | 0.21 | 0.02 | 91 | 1010.6 |
| 20260507084543 | 50 | 28 | 0.0 | 3.5 | 0.00 | 0.21 | 0.02 | 91 | 1010.3 |
| 20260507083026 | 50 | 34 | 0.9 | 3.5 | 0.00 | 0.21 | 0.02 | 91 | 1010.2 |
| 20260507080021 | 50 | 33 | 0.0 | 2.6 | 0.00 | 0.21 | 0.02 | 91 | 1009.8 |
| 20260507074520 | 50 | 32 | 0.0 | 0.0 | 0.00 | 0.21 | 0.02 | 90 | 1010.0 |
| 20260507073023 | 51 | 32 | 0.0 | 2.6 | 0.01 | 0.21 | 0.02 | 90 | 1009.7 |
| 20260507071517 | 51 | 39 | 0.9 | 2.6 | 0.02 | 0.21 | 0.02 | 90 | 1010.1 |
| 20260507070019 | 51 | 17 | 1.7 | 3.5 | 0.02 | 0.21 | 0.02 | 89 | 1010.3 |
| 20260507064512 | 52 | 30 | 0.9 | 2.6 | 0.02 | 0.21 | 0.02 | 88 | 1010.1 |
| 20260507063013 | 52 | 22 | 0.0 | 2.6 | 0.01 | 0.20 | 0.01 | 87 | 1010.3 |
| 20260507061507 | 53 | 355 | 0.9 | 7.0 | 0.00 | 0.19 | 0.00 | 87 | 1010.3 |
| 20260507060005 | 53 | 17 | 2.6 | 7.0 | 0.00 | 0.19 | 0.00 | 88 | 1010.1 |
| 20260507054503 | 53 | 30 | 1.7 | 3.5 | 0.00 | 0.19 | 0.00 | 89 | 1009.9 |
| 20260507053002 | 54 | 41 | 0.0 | 2.6 | 0.00 | 0.19 | 0.00 | 88 | 1010.0 |
| 20260507051608 | 54 | 48 | 0.0 | 4.3 | 0.00 | 0.19 | 0.00 | 88 | 1009.9 |
| 20260507050049 | 54 | 24 | 0.0 | 1.7 | 0.00 | 0.19 | 0.00 | 88 | 1010.4 |
| 20260507044531 | 54 | 15 | 0.0 | 7.0 | 0.00 | 0.19 | 0.19 | 87 | 1010.3 |
| 20260507043023 | 54 | 22 | 1.7 | 7.0 | 0.00 | 0.19 | 0.19 | 87 | 1009.8 |
| 20260507041520 | 55 | 12 | 0.9 | 5.2 | 0.02 | 0.19 | 0.19 | 87 | 1009.4 |
| 20260507040022 | 55 | 16 | 2.6 | 7.0 | 0.02 | 0.19 | 0.19 | 87 | 1009.7 |
| 20260507034516 | 56 | 15 | 0.0 | 3.5 | 0.02 | 0.19 | 0.19 | 88 | 1009.4 |
| 20260507033016 | 57 | 5 | 0.0 | 5.2 | 0.02 | 0.19 | 0.19 | 87 | 1009.2 |
| 20260507031508 | 58 | 342 | 0.9 | 5.2 | 0.00 | 0.17 | 0.17 | 85 | 1009.6 |
| 20260507030006 | 58 | 351 | 1.7 | 11.3 | 0.00 | 0.17 | 0.17 | 85 | 1008.9 |
| 20260507024503 | 59 | 27 | 2.6 | 5.2 | 0.00 | 0.17 | 0.17 | 86 | 1009.0 |
| 20260507023100 | 59 | 360 | 0.0 | 3.5 | 0.00 | 0.17 | 0.17 | 86 | 1009.0 |
| 20260507021611 | 59 | 350 | 0.0 | 1.7 | 0.00 | 0.17 | 0.17 | 85 | 1008.9 |
| 20260507014600 | 60 | 355 | 0.0 | 4.3 | 0.00 | 0.17 | 0.17 | 83 | 1008.6 |
| 20260507013055 | 60 | 355 | 0.9 | 7.0 | 0.00 | 0.17 | 0.17 | 83 | 1008.9 |
| 20260507011558 | 61 | 360 | 1.7 | 7.0 | 0.00 | 0.17 | 0.17 | 83 | 1008.8 |
| 20260507010056 | 62 | 5 | 0.0 | 5.2 | 0.00 | 0.17 | 0.17 | 85 | 1009.1 |
| 20260507004554 | 63 | 45 | 0.9 | 7.0 | 0.01 | 0.17 | 0.17 | 86 | 1008.8 |
| 20260507003050 | 65 | 355 | 0.0 | 2.6 | 0.01 | 0.17 | 0.17 | 87 | 1008.4 |
| 20260507001550 | 65 | 175 | 0.0 | 0.0 | 0.01 | 0.17 | 0.17 | 86 | 1008.0 |
| 20260507000053 | 66 | 175 | 0.0 | 0.9 | 0.01 | 0.17 | 0.17 | 84 | 1007.9 |
| 20260506234605 | 66 | 175 | 0.0 | 2.6 | 0.00 | 0.16 | 0.16 | 83 | 1007.4 |
| 20260506233046 | 66 | 176 | 0.0 | 3.5 | 0.00 | 0.16 | 0.16 | 82 | 1007.1 |
| 20260506231546 | 67 | 178 | 0.0 | 1.7 | 0.00 | 0.16 | 0.16 | 82 | 1007.0 |
| 20260506230045 | 67 | 177 | 0.9 | 2.6 | 0.00 | 0.16 | 0.16 | 81 | 1007.1 |
| 20260506224548 | 67 | 187 | 0.0 | 3.5 | 0.00 | 0.16 | 0.16 | 81 | 1007.0 |
| 20260506223048 | 67 | 222 | 0.0 | 3.5 | 0.00 | 0.16 | 0.16 | 82 | 1007.0 |
| 20260506221542 | 67 | 150 | 0.0 | 2.6 | 0.00 | 0.16 | 0.16 | 83 | 1007.0 |
| 20260506220042 | 66 | 175 | 0.0 | 2.6 | 0.00 | 0.16 | 0.16 | 82 | 1007.1 |
| 20260506214543 | 66 | 175 | 0.9 | 2.6 | 0.00 | 0.16 | 0.16 | 82 | 1006.9 |
| 20260506213039 | 66 | 215 | 0.9 | 4.3 | 0.00 | 0.16 | 0.16 | 81 | 1006.9 |
| 20260506211538 | 67 | 136 | 0.9 | 3.5 | 0.00 | 0.16 | 0.16 | 81 | 1006.6 |
| 20260506210039 | 67 | 195 | 1.7 | 3.5 | 0.00 | 0.16 | 0.16 | 81 | 1006.4 |
| 20260506204549 | 67 | 159 | 2.6 | 4.3 | 0.00 | 0.16 | 0.16 | 80 | 1006.3 |
| 20260506203034 | 67 | 161 | 0.9 | 5.2 | 0.00 | 0.16 | 0.16 | 81 | 1006.5 |
| 20260506201536 | 67 | 169 | 0.9 | 4.3 | 0.00 | 0.16 | 0.16 | 82 | 1006.4 |
| 20260506200035 | 67 | 157 | 0.9 | 5.2 | 0.00 | 0.16 | 0.16 | 81 | 1006.5 |
| 20260506194534 | 67 | 240 | 0.9 | 5.2 | 0.00 | 0.16 | 0.16 | 81 | 1006.6 |
| 20260506193030 | 67 | 146 | 2.6 | 5.2 | 0.00 | 0.16 | 0.16 | 81 | 1006.5 |
| 20260506191529 | 67 | 136 | 1.7 | 6.1 | 0.00 | 0.16 | 0.16 | 82 | 1006.6 |
| 20260506190026 | 66 | 167 | 2.6 | 7.8 | 0.00 | 0.16 | 0.16 | 82 | 1006.7 |
| 20260506183103 | 64 | 165 | 4.3 | 7.8 | 0.00 | 0.16 | 0.16 | 85 | 1006.9 |
| 20260506181559 | 64 | 151 | 1.7 | 8.7 | 0.00 | 0.16 | 0.16 | 86 | 1006.9 |
| 20260506180051 | 64 | 174 | 1.7 | 9.6 | 0.00 | 0.16 | 0.16 | 87 | 1007.1 |
| 20260506174551 | 63 | 123 | 3.5 | 13.0 | 0.00 | 0.16 | 0.16 | 88 | 1007.2 |
| 20260506173055 | 62 | 180 | 3.5 | 10.4 | 0.00 | 0.16 | 0.16 | 90 | 1007.0 |
| 20260506171550 | 62 | 136 | 2.6 | 10.4 | 0.00 | 0.16 | 0.16 | 92 | 1007.2 |
| 20260506170021 | 61 | 177 | 3.5 | 9.6 | 0.00 | 0.16 | 0.16 | 92 | 1007.1 |
| 20260506164521 | 60 | 158 | 4.3 | 9.6 | 0.00 | 0.16 | 0.16 | 93 | 1007.1 |
| 20260506163051 | 60 | 181 | 3.5 | 11.3 | 0.00 | 0.16 | 0.16 | 93 | 1007.2 |
| 20260506161556 | 60 | 132 | 2.6 | 12.2 | 0.00 | 0.16 | 0.16 | 93 | 1007.3 |
| 20260506160046 | 59 | 161 | 4.3 | 11.3 | 0.01 | 0.16 | 0.16 | 93 | 1007.4 |
| 20260506154543 | 59 | 141 | 4.3 | 13.9 | 0.04 | 0.16 | 0.16 | 93 | 1007.4 |
| 20260506153039 | 59 | 142 | 5.2 | 12.2 | 0.04 | 0.16 | 0.16 | 93 | 1007.2 |
| 20260506151553 | 59 | 118 | 3.5 | 12.2 | 0.05 | 0.16 | 0.16 | 93 | 1007.4 |
| 20260506150036 | 59 | 130 | 3.5 | 12.2 | 0.05 | 0.15 | 0.15 | 92 | 1007.8 |
| 20260506144532 | 59 | 144 | 5.2 | 9.6 | 0.03 | 0.12 | 0.12 | 92 | 1008.2 |
| 20260506143044 | 59 | 178 | 2.6 | 7.8 | 0.05 | 0.12 | 0.12 | 92 | 1007.9 |
| 20260506143042 | 59 | 182 | 2.6 | 7.8 | 0.05 | 0.12 | 0.12 | 92 | 1007.9 |
| 20260506141529 | 60 | 166 | 2.6 | 12.2 | 0.05 | 0.11 | 0.11 | 91 | 1007.8 |
| 20260506140035 | 60 | 168 | 3.5 | 7.8 | 0.05 | 0.10 | 0.10 | 91 | 1007.7 |
| 20260506134524 | 60 | 166 | 2.6 | 9.6 | 0.06 | 0.09 | 0.09 | 90 | 1008.0 |
| 20260506133024 | 60 | 126 | 2.6 | 6.1 | 0.05 | 0.07 | 0.07 | 89 | 1008.4 |
| 20260506131525 | 60 | 207 | 1.7 | 8.7 | 0.06 | 0.06 | 0.06 | 88 | 1008.2 |
| 20260506130017 | 60 | 146 | 0.9 | 7.0 | 0.05 | 0.05 | 0.05 | 86 | 1008.1 |
| 20260506124544 | 61 | 146 | 0.0 | 4.3 | 0.03 | 0.03 | 0.03 | 85 | 1008.0 |
| 20260506123042 | 61 | 169 | 0.9 | 6.1 | 0.02 | 0.02 | 0.02 | 83 | 1008.1 |
| 20260506121537 | 62 | 167 | 0.9 | 7.8 | 0.00 | 0.00 | 0.00 | 81 | 1008.3 |
| 20260506120038 | 62 | 216 | 0.9 | 7.8 | 0.00 | 0.00 | 0.00 | 79 | 1008.5 |
| 20260506114542 | 63 | 120 | 0.9 | 5.2 | 0.00 | 0.00 | 0.00 | 78 | 1008.4 |
| 20260506113133 | 63 | 156 | 1.7 | 6.1 | 0.00 | 0.00 | 0.00 | 77 | 1008.2 |
| 20260506111501 | 63 | 115 | 0.9 | 10.4 | 0.00 | 0.00 | 0.00 | 76 | 1007.9 |
| 20260506110104 | 63 | 175 | 3.5 | 7.8 | 0.00 | 0.00 | 0.00 | 74 | 1007.8 |
| 20260506104613 | 63 | 148 | 1.7 | 8.7 | 0.00 | 0.00 | 0.00 | 73 | 1007.6 |
| 20260506103052 | 64 | 166 | 0.9 | 9.6 | 0.00 | 0.00 | 0.00 | 72 | 1007.3 |
| 20260506101556 | 64 | 117 | 4.3 | 10.4 | 0.00 | 0.00 | 0.00 | 71 | 1007.3 |